[[{"header":{"parameterUnit":"m.s-1","parameterCategory":1,"la1":30.2991,"la2":30.254,"lo1":-89.0895,"lo2":-89.0444,"dy":0.0017,"dx":0.0017,"nx":28,"ny":28,"refTime":"2025-11-10T03:00:00:Z","depth":0,"parameterNumber":2,"parameterNumberName":"U-component_of_WINDS"},"data":[0,0,0,0,0,0,0,0,0,0,0,0,0,0,0,0,0,0,0,0,0,0,0,0,0,0,0,0,0,0,0,0,0,0,0,0,0,0,0,0,0,0,0,0,0,0,0,0,0,0,0,0,0,0,0,0,0,0,2.0946,2.0946,0,2.0952,2.0952,2.0952,2.0942,2.0942,2.0941,2.0941,2.0946,2.0946,2.0947,0,0,0,0,0,0,0,0,0,0,0,0,0,2.0924,2.0924,2.0946,2.0946,2.0946,2.0952,2.0952,2.0952,2.0942,2.0942,2.0941,2.0941,2.0946,2.0946,2.0947,0,0,0,0,0,0,0,0,0,0,0,0,0,2.0932,2.0925,2.0946,2.0942,2.0941,2.0952,2.0952,2.0952,2.0942,2.0942,2.0941,2.0941,2.0946,2.0946,2.0947,2.0962,0,0,2.0949,2.0949,0,0,0,0,0,0,0,0,2.0932,2.0933,2.0942,2.0942,2.0942,2.0946,2.0946,2.0955,2.0942,2.0942,2.0941,2.0941,2.0946,2.0947,2.0949,2.0962,2.0962,2.0949,2.0949,2.095,2.095,0,0,0,0,0,0,0,2.0931,2.0933,2.0948,2.0942,2.0942,2.0939,2.094,2.0948,2.0947,2.0942,2.0941,2.0942,2.0946,2.0949,2.0949,2.0962,2.0949,2.095,2.095,2.095,2.0989,2.0989,0,0,0,0,0,0,2.0931,2.0932,2.0948,2.0948,2.0935,2.094,2.0941,2.0945,2.0947,2.0947,2.0943,2.0942,2.0948,2.0948,2.0949,2.0967,2.095,2.095,2.0951,2.0988,2.0989,2.0989,0,0,0,0,0,0,2.0931,2.0933,2.0948,2.094,2.0942,2.0941,2.0946,2.0945,2.0948,2.0947,2.0947,2.0945,2.0947,2.0948,2.0959,2.0967,2.0951,2.0951,2.0987,2.0988,2.0989,2.1002,0,0,0,0,0,0,2.093,2.0933,2.0938,2.094,2.0942,2.0957,2.0946,2.0946,2.0949,2.0948,2.095,2.095,2.0947,2.0958,2.096,2.0968,2.0952,2.0986,2.0988,2.0989,2.1001,2.1004,2.1006,0,0,0,0,0,2.093,2.0941,2.0938,2.094,2.0949,2.0958,2.0959,2.0956,2.095,2.0956,2.0956,2.095,2.0966,2.0959,2.0961,2.0969,2.0986,2.0987,2.0989,2.1,2.1003,2.1006,0,0,0,0,0,0,2.0938,2.0941,2.0938,2.0951,2.0954,2.0956,2.0963,2.0959,2.0964,2.0962,2.0958,2.0959,2.0971,2.0971,2.0963,2.0984,2.0975,2.0977,2.0983,2.0986,2.0988,2.0987,2.0952,0,0,0,0,0,2.0942,2.0949,2.0951,2.0962,2.0964,2.0963,2.0967,2.0965,2.0968,2.0969,2.097,2.0973,2.0979,2.0983,2.0988,2.1002,2.1002,2.1009,2.1011,2.1013,2.1014,2.1022,2.1025,2.0994,2.0994,2.0994,0,0,2.0949,2.0951,2.0956,2.0964,2.0966,2.0974,2.0964,2.0972,2.0978,2.097,2.098,2.0981,2.0984,2.0997,2.1003,2.0998,2.1023,2.1015,2.1016,2.1016,2.1024,2.1027,2.1029,2.0995,2.0995,2.0994,0,0,2.0965,2.0968,2.0978,2.0981,2.0985,2.0985,2.0988,2.0991,2.0991,2.1002,2.0997,2.1003,2.1014,2.1016,2.1019,2.104,2.1034,2.1042,2.1053,2.1061,2.1063,2.1065,2.1073,2.1075,2.1043,2.1043,2.1043,0,2.0973,2.0984,2.0983,2.0992,2.0996,2.0991,2.1001,2.1004,2.1009,2.1012,2.1007,2.1021,2.1023,2.1037,2.1042,2.1044,2.1047,2.104,2.1063,2.1065,2.1067,2.1074,2.1077,2.1044,2.1044,2.1044,2.1044,0,2.0994,2.1002,2.1009,2.1016,2.1021,2.103,2.1031,2.1036,2.1034,2.1035,2.1046,2.1049,2.1055,2.1058,2.1056,2.1072,2.1069,2.1064,2.1054,2.1071,2.1077,2.108,2.1045,2.1045,2.1045,2.1044,0,0,2.1013,2.1021,2.1024,2.1027,2.1033,2.1039,2.1049,2.1057,2.1061,2.1066,2.1074,2.1084,2.108,2.1083,2.1082,2.1089,2.1105,2.1083,2.1083,2.1086,2.1123,2.1126,2.1129,2.1103,2.1103,2.1104,2.1123,0,2.1029,2.1046,2.1047,2.1062,2.107,2.1067,2.1076,2.108,2.1082,2.1089,2.109,2.1097,2.1091,2.1093,2.11,2.1102,2.1112,2.11,2.1109,2.111,2.1108,2.1133,2.1136,2.1154,2.1125,2.1126,2.1126,0,2.105,2.1057,2.1074,2.108,2.1083,2.1091,2.1098,2.1105,2.1111,2.1111,2.1116,2.1114,2.1124,2.1116,2.113,2.1122,2.1126,2.1128,2.1128,2.1128,2.1118,2.1132,2.1159,2.1162,2.113,2.113,2.1129,0,2.1062,2.1076,2.1088,2.1091,2.1099,2.1104,2.1108,2.1113,2.1118,2.1125,2.1128,2.1135,2.1139,2.1145,2.1146,2.1139,2.116,2.1151,2.116,2.116,2.1163,2.1163,2.1191,2.1168,2.1168,2.1168,2.1168,0,2.1079,2.109,2.1094,2.1101,2.1113,2.1114,2.1125,2.1128,2.1133,2.1141,2.1139,2.1146,2.1147,2.1155,2.1155,2.1167,2.1169,2.1169,2.1169,2.1169,2.1169,2.117,2.1169,2.1168,2.1168,2.1168,2.1168,0,2.1094,2.1097,2.111,2.1117,2.1119,2.1128,2.1134,2.1141,2.1143,2.1153,2.1156,2.1159,2.1168,2.117,2.118,2.118,2.1195,2.1193,2.1193,2.1192,2.1201,2.12,2.123,2.1234,2.1209,2.1209,2.121,0,2.1104,2.1112,2.1121,2.1127,2.1131,2.114,2.1145,2.1147,2.1153,2.1161,2.1168,2.1177,2.1184,2.1199,2.1202,2.1211,2.1209,2.1219,2.121,2.121,2.1209,2.1208,2.1209,2.122,2.1221,2.1221,2.1221,0,2.1122,2.1124,2.1132,2.1142,2.1149,2.1156,2.1163,2.1168,2.1171,2.1178,2.1188,2.1194,2.1205,2.1214,2.1223,2.1227,2.1224,2.1224,2.1227,2.1226,2.1225,2.1225,2.1196,2.1223,2.1223,2.1223,2.1223,2.1222,2.1135,2.1142,2.115,2.116,2.1166,2.1173,2.118,2.1184,2.1193,2.1203,2.1204,2.1215,2.1222,2.1234,2.1238,2.1246,2.1243,2.1247,2.1247,2.1248,2.1249,2.1225,2.1248,2.1248,2.1248,2.1248,2.1248,0,2.1152,2.1158,2.1167,2.1177,2.1185,2.1184,2.1193,2.1199,2.1209,2.1216,2.1224,2.1236,2.1246,2.1251,2.126,2.1266,2.1266,2.1269,2.1268,2.1268,2.1251,2.1248,2.1269,2.1269,2.1269,2.1269,2.1269,2.1269,2.1162,2.1175,2.1178,2.1194,2.1199,2.1211,2.1216,2.1222,2.1228,2.1242,2.125,2.1254,2.1261,2.1271,2.128,2.1281,2.1284,2.1288,2.1288,2.1272,2.127,2.1267,2.1264,2.1289,2.1289,2.1305,2.1305,2.1305]},{"header":{"parameterUnit":"m.s-1","parameterCategory":1,"la1":30.2991,"la2":30.254,"lo1":-89.0895,"lo2":-89.0444,"dy":0.0017,"dx":0.0017,"nx":28,"ny":28,"refTime":"2025-11-10T03:00:00:Z","depth":0,"parameterNumber":3,"parameterNumberName":"V-component_of_WINDS"},"data":[0,0,0,0,0,0,0,0,0,0,0,0,0,0,0,0,0,0,0,0,0,0,0,0,0,0,0,0,0,0,0,0,0,0,0,0,0,0,0,0,0,0,0,0,0,0,0,0,0,0,0,0,0,0,0,0,0,0,-8.925,-8.9252,0,-8.9441,-8.9443,-8.9445,-8.9331,-8.9326,-8.932,-8.9315,-8.9504,-8.9514,-8.9524,0,0,0,0,0,0,0,0,0,0,0,0,0,-8.878,-8.879,-8.925,-8.9252,-8.9255,-8.9441,-8.9443,-8.9446,-8.9332,-8.9326,-8.9319,-8.9313,-8.9501,-8.9513,-8.9525,0,0,0,0,0,0,0,0,0,0,0,0,0,-8.8979,-8.8793,-8.9249,-8.9221,-8.922,-8.944,-8.9443,-8.9447,-8.9334,-8.9325,-8.9317,-8.931,-8.9497,-8.9512,-8.9526,-8.9784,0,0,-8.9573,-8.9579,0,0,0,0,0,0,0,0,-8.8968,-8.8996,-8.9222,-8.9223,-8.9223,-8.9354,-8.9347,-8.9559,-8.9336,-8.929,-8.9315,-8.9306,-8.946,-8.9478,-8.9532,-8.9793,-8.9801,-8.9574,-8.9583,-8.959,-8.9594,0,0,0,0,0,0,0,-8.8954,-8.8988,-8.9325,-8.9226,-8.9226,-8.9196,-8.9215,-8.9387,-8.9419,-8.9294,-8.9286,-8.931,-8.9459,-8.9517,-8.9535,-8.9804,-8.9574,-8.9587,-8.9597,-8.9603,-9.0285,-9.0294,0,0,0,0,0,0,-8.8944,-8.8977,-8.9319,-8.9331,-8.9073,-8.9211,-8.9233,-8.932,-8.9417,-8.9424,-8.9317,-8.9304,-8.9495,-8.9518,-8.9541,-8.9849,-8.959,-8.9604,-8.9613,-9.0276,-9.0287,-9.0297,0,0,0,0,0,0,-8.8934,-8.8975,-8.9311,-8.9152,-8.9193,-8.9228,-8.9327,-8.9328,-8.9387,-8.9434,-8.9439,-8.9372,-8.949,-8.952,-8.9725,-8.9854,-8.9611,-8.9625,-9.0266,-9.028,-9.0292,-9.0468,0,0,0,0,0,0,-8.8921,-8.8973,-8.9072,-8.9155,-8.9202,-8.9495,-8.9335,-8.9338,-8.9414,-8.9399,-8.9487,-8.9493,-8.9486,-8.9703,-8.974,-8.9871,-8.9636,-9.0254,-9.0272,-9.0288,-9.045,-9.0486,-9.0516,0,0,0,0,0,-8.8905,-8.9113,-8.9078,-8.912,-8.9327,-8.9502,-8.9528,-8.9518,-8.9425,-8.9524,-8.9555,-8.949,-8.9834,-8.9725,-8.9766,-8.9903,-9.0246,-9.0267,-9.0287,-9.0436,-9.0479,-9.0515,0,0,0,0,0,0,-8.9041,-8.9123,-8.9085,-8.9327,-8.9409,-8.9483,-8.9608,-8.9563,-8.9671,-8.9653,-8.9632,-8.9653,-8.9867,-8.9905,-8.9782,-9.0157,-9.0025,-9.0055,-9.0125,-9.0166,-9.0198,-9.0184,-8.9649,0,0,0,0,0,-8.91,-8.9238,-8.93,-8.9507,-8.955,-8.9573,-8.9648,-8.9633,-8.9716,-8.975,-8.9795,-8.9876,-9.0002,-9.0086,-9.0205,-9.0455,-9.0472,-9.057,-9.0602,-9.0629,-9.0654,-9.0789,-9.0833,-9.0364,-9.0364,-9.0363,0,0,-8.9222,-8.9283,-8.9371,-8.9536,-8.9598,-8.9739,-8.9602,-8.9757,-8.9861,-8.9772,-8.9969,-9.0006,-9.0095,-9.0324,-9.0427,-9.0362,-9.0788,-9.0654,-9.0675,-9.0687,-9.0815,-9.0859,-9.0899,-9.0378,-9.0375,-9.0373,0,0,-8.9516,-8.9577,-8.9756,-8.9821,-8.9917,-8.9931,-8.9974,-9.0056,-9.0077,-9.0275,-9.0212,-9.0333,-9.0552,-9.0618,-9.068,-9.1001,-9.0945,-9.1039,-9.121,-9.1342,-9.1379,-9.1411,-9.1526,-9.1567,-9.1065,-9.1065,-9.1066,0,-8.9655,-8.9867,-8.9853,-9.0014,-9.0088,-9.0017,-9.0197,-9.026,-9.0389,-9.0441,-9.0367,-9.064,-9.0695,-9.0939,-9.1017,-9.107,-9.1117,-9.103,-9.1375,-9.1407,-9.1438,-9.1546,-9.159,-9.1076,-9.1075,-9.1074,-9.1073,0,-9.0032,-9.0181,-9.0313,-9.0443,-9.0532,-9.0702,-9.0712,-9.0803,-9.078,-9.0801,-9.1003,-9.1067,-9.1197,-9.1254,-9.1232,-9.1495,-9.1452,-9.1377,-9.1244,-9.1494,-9.1595,-9.1637,-9.1092,-9.1088,-9.1085,-9.1082,0,0,-9.0418,-9.0539,-9.0588,-9.0646,-9.0747,-9.086,-9.1026,-9.1156,-9.1235,-9.1326,-9.1464,-9.165,-9.1582,-9.1653,-9.1638,-9.1754,-9.2004,-9.1664,-9.1666,-9.1725,-9.2297,-9.2353,-9.2402,-9.1967,-9.1975,-9.1981,-9.229,0,-9.0719,-9.1012,-9.1004,-9.1275,-9.1411,-9.1346,-9.149,-9.1566,-9.159,-9.1708,-9.1732,-9.1865,-9.1765,-9.1808,-9.1919,-9.195,-9.2118,-9.1927,-9.2094,-9.21,-9.2074,-9.2455,-9.2515,-9.2803,-9.2329,-9.2336,-9.2341,0,-9.1109,-9.1217,-9.1502,-9.1584,-9.1641,-9.1771,-9.189,-9.2003,-9.2088,-9.2097,-9.2177,-9.2144,-9.231,-9.2173,-9.2401,-9.2271,-9.2338,-9.2364,-9.2374,-9.239,-9.2236,-9.2481,-9.2894,-9.2938,-9.2404,-9.2399,-9.2394,0,-9.1362,-9.1578,-9.1777,-9.1828,-9.1929,-9.2022,-9.2067,-9.2144,-9.2223,-9.2326,-9.2377,-9.2497,-9.2563,-9.2656,-9.2655,-9.2555,-9.2886,-9.2748,-9.2897,-9.2897,-9.2969,-9.2965,-9.34,-9.3013,-9.3012,-9.3011,-9.301,0,-9.1699,-9.1877,-9.1892,-9.2015,-9.2211,-9.22,-9.2394,-9.243,-9.2499,-9.2626,-9.2575,-9.2695,-9.2686,-9.2806,-9.2806,-9.2995,-9.3025,-9.3036,-9.3033,-9.3041,-9.304,-9.3085,-9.3065,-9.3023,-9.302,-9.3018,-9.3016,0,-9.2016,-9.2033,-9.2246,-9.2324,-9.2348,-9.2489,-9.2555,-9.267,-9.2689,-9.2851,-9.2888,-9.2918,-9.3057,-9.3065,-9.3225,-9.3225,-9.3454,-9.343,-9.3427,-9.3423,-9.3571,-9.3557,-9.4051,-9.4115,-9.3685,-9.369,-9.3693,0,-9.223,-9.2365,-9.2459,-9.2541,-9.2593,-9.2727,-9.2807,-9.2801,-9.2887,-9.2995,-9.3097,-9.3232,-9.3339,-9.3564,-9.3599,-9.3721,-9.3699,-9.3863,-9.3717,-9.372,-9.3702,-9.3694,-9.3707,-9.3892,-9.3897,-9.3901,-9.3904,0,-9.2608,-9.2611,-9.2731,-9.2855,-9.2954,-9.305,-9.314,-9.321,-9.3214,-9.3313,-9.3456,-9.354,-9.3704,-9.3838,-9.3957,-9.4001,-9.3954,-9.395,-9.3991,-9.4,-9.3993,-9.3999,-9.3505,-9.3939,-9.3935,-9.3933,-9.3931,-9.3929,-9.288,-9.2998,-9.3083,-9.3218,-9.3285,-9.3371,-9.3484,-9.3518,-9.3638,-9.3774,-9.3762,-9.392,-9.4001,-9.4156,-9.421,-9.4332,-9.4276,-9.4335,-9.435,-9.4365,-9.4381,-9.3973,-9.4354,-9.4353,-9.4352,-9.4351,-9.435,0,-9.3257,-9.3308,-9.3433,-9.3562,-9.3668,-9.3616,-9.3713,-9.3805,-9.3946,-9.4026,-9.4134,-9.4298,-9.4428,-9.4474,-9.46,-9.4689,-9.467,-9.4722,-9.4716,-9.4727,-9.4424,-9.4376,-9.4735,-9.4735,-9.4735,-9.4735,-9.4735,-9.4735,-9.3465,-9.3662,-9.3674,-9.3903,-9.3952,-9.4109,-9.4169,-9.4247,-9.4311,-9.4498,-9.4607,-9.4636,-9.4703,-9.4833,-9.4949,-9.4959,-9.5008,-9.5069,-9.507,-9.4786,-9.4748,-9.4711,-9.4666,-9.508,-9.508,-9.5362,-9.5365,-9.5367]}]]